Year,Month,Day,Hour,Minute,Value (Times are PST for temperature in C)
2006,09,14,00,00,12.00
2006,09,14,00,01,12.00
2006,09,14,00,02,12.00
2006,09,14,00,03,12.00
2006,09,14,00,04,12.00
2006,09,14,00,05,12.00
2006,09,14,00,06,12.00
2006,09,14,00,07,12.00
2006,09,14,00,08,12.00
2006,09,14,00,09,12.00
2006,09,14,00,10,12.00
2006,09,14,00,11,12.00
2006,09,14,00,12,12.00
2006,09,14,01,02,11.80
2006,09,14,01,03,11.80
2006,09,14,01,04,11.80
2006,09,14,01,05,11.80
2006,09,14,01,06,11.80
2006,09,14,01,07,11.80
2006,09,14,01,08,11.80
2006,09,14,01,09,11.80
2006,09,14,01,10,11.80
2006,09,14,01,11,11.80
2006,09,14,01,12,11.80
2006,09,14,01,13,11.70
2006,09,14,01,14,11.70
2006,09,14,01,15,11.70
2006,09,14,01,16,11.70
2006,09,14,01,17,11.70
2006,09,14,01,18,11.70
2006,09,14,01,19,11.70
2006,09,14,01,20,11.70
2006,09,14,01,21,11.60
2006,09,14,01,22,11.60
2006,09,14,01,23,11.60
2006,09,14,01,24,11.60
2006,09,14,01,25,11.60
2006,09,14,01,26,11.60
2006,09,14,01,27,11.60
2006,09,14,01,28,11.60
2006,09,14,01,29,11.60
2006,09,14,01,30,11.60
2006,09,14,01,31,11.60
2006,09,14,01,32,11.60
2006,09,14,01,33,11.60
2006,09,14,01,34,11.50
2006,09,14,01,35,11.40
2006,09,14,01,36,11.40
2006,09,14,01,37,11.40
2006,09,14,01,38,11.40
2006,09,14,01,39,11.40
2006,09,14,01,40,11.40
2006,09,14,01,41,11.40
2006,09,14,01,42,11.40
2006,09,14,01,43,11.40
2006,09,14,01,44,11.30
2006,09,14,01,45,11.30
2006,09,14,01,46,11.30
2006,09,14,01,47,11.30
2006,09,14,01,48,11.30
2006,09,14,01,49,11.30
2006,09,14,01,50,11.30
2006,09,14,01,51,11.30
2006,09,14,01,52,11.30
2006,09,14,01,53,11.30
2006,09,14,01,54,11.20
2006,09,14,01,55,11.20
2006,09,14,01,56,11.20
2006,09,14,01,57,11.20
2006,09,14,01,58,11.20
2006,09,14,01,59,11.20
2006,09,14,02,00,11.20
2006,09,14,02,01,11.20
2006,09,14,02,02,11.20
2006,09,14,02,03,11.20
2006,09,14,02,04,11.20
2006,09,14,02,05,11.20
2006,09,14,02,06,11.20
2006,09,14,02,07,11.20
2006,09,14,02,08,11.10
2006,09,14,02,09,11.10
2006,09,14,02,10,11.10
2006,09,14,02,11,11.10
2006,09,14,02,12,11.10
2006,09,14,02,13,11.10
2006,09,14,02,14,11.10
2006,09,14,02,15,11.10
2006,09,14,02,16,11.10
2006,09,14,02,17,11.10
2006,09,14,02,18,11.10
2006,09,14,02,19,11.10
2006,09,14,02,20,11.10
2006,09,14,02,21,11.10
2006,09,14,02,22,11.10
2006,09,14,02,23,11.10
2006,09,14,02,24,11.10
2006,09,14,02,25,11.10
2006,09,14,02,26,11.00
2006,09,14,02,27,10.90
2006,09,14,02,28,10.90
2006,09,14,02,29,10.90
2006,09,14,02,30,10.90
2006,09,14,02,31,10.90
2006,09,14,02,32,10.90
2006,09,14,02,33,10.90
2006,09,14,02,34,10.90
2006,09,14,02,35,10.90
2006,09,14,02,36,10.90
2006,09,14,02,37,10.90
2006,09,14,02,38,10.90
2006,09,14,02,39,10.90
2006,09,14,02,40,10.80
2006,09,14,02,41,10.80
2006,09,14,02,42,10.80
2006,09,14,02,43,10.80
2006,09,14,02,44,10.80
2006,09,14,02,45,10.80
2006,09,14,02,46,10.80
2006,09,14,02,47,10.80
2006,09,14,02,48,10.80
2006,09,14,02,49,10.70
2006,09,14,02,50,10.70
2006,09,14,02,51,10.70
2006,09,14,02,52,10.70
2006,09,14,02,53,10.70
2006,09,14,02,54,10.70
2006,09,14,02,55,10.70
2006,09,14,02,56,10.60
2006,09,14,02,57,10.60
2006,09,14,02,58,10.60
2006,09,14,02,59,10.60
2006,09,14,03,00,10.60
2006,09,14,03,01,10.60
2006,09,14,03,02,10.60
2006,09,14,03,03,10.60
2006,09,14,03,04,10.60
2006,09,14,03,05,10.60
2006,09,14,03,06,10.60
2006,09,14,03,07,10.60
2006,09,14,03,08,10.60
2006,09,14,03,09,10.60
2006,09,14,03,10,10.60
2006,09,14,03,11,10.50
2006,09,14,03,12,10.40
2006,09,14,03,13,10.40
2006,09,14,03,14,10.40
2006,09,14,03,15,10.40
2006,09,14,03,16,10.40
2006,09,14,03,17,10.40
2006,09,14,03,18,10.40
2006,09,14,03,19,10.40
2006,09,14,03,20,10.40
2006,09,14,03,21,10.40
2006,09,14,03,22,10.40
2006,09,14,03,23,10.40
2006,09,14,03,24,10.40
2006,09,14,03,25,10.40
2006,09,14,03,26,10.40
2006,09,14,03,27,10.30
2006,09,14,03,28,10.30
2006,09,14,03,29,10.30
2006,09,14,03,30,10.30
2006,09,14,03,31,10.30
2006,09,14,03,32,10.30
2006,09,14,03,33,10.30
2006,09,14,03,34,10.20
2006,09,14,03,35,10.20
2006,09,14,03,36,10.20
2006,09,14,03,37,10.20
2006,09,14,03,38,10.20
2006,09,14,03,39,10.10
2006,09,14,03,40,10.10
2006,09,14,03,41,10.10
2006,09,14,03,42,10.10
2006,09,14,03,43,10.10
2006,09,14,03,44,10.10
2006,09,14,03,45,10.10
2006,09,14,03,46,10.10
2006,09,14,03,47,10.10
2006,09,14,03,48,10.00
2006,09,14,03,49,9.90
2006,09,14,03,50,9.90
2006,09,14,03,51,9.90
2006,09,14,03,52,9.90
2006,09,14,03,53,9.90
2006,09,14,03,54,9.90
2006,09,14,03,55,9.90
2006,09,14,03,56,9.90
2006,09,14,03,57,9.90
2006,09,14,03,58,9.90
2006,09,14,03,59,9.90
2006,09,14,04,00,9.90
2006,09,14,04,01,9.90
2006,09,14,04,02,9.90
2006,09,14,04,03,9.90
2006,09,14,04,04,9.90
2006,09,14,04,05,9.90
2006,09,14,04,06,9.80
2006,09,14,04,07,9.80
2006,09,14,04,08,9.80
2006,09,14,04,09,9.80
2006,09,14,04,10,9.80
2006,09,14,04,11,9.80
2006,09,14,04,12,9.80
2006,09,14,04,13,9.80
2006,09,14,04,14,9.70
2006,09,14,04,15,9.70
2006,09,14,04,16,9.70
2006,09,14,04,17,9.70
2006,09,14,04,18,9.70
2006,09,14,04,19,9.70
2006,09,14,04,20,9.60
2006,09,14,04,21,9.60
2006,09,14,04,22,9.60
2006,09,14,04,23,9.50
2006,09,14,04,24,9.50
2006,09,14,04,25,9.40
2006,09,14,04,26,9.40
2006,09,14,04,27,9.40
2006,09,14,04,28,9.40
2006,09,14,04,29,9.30
2006,09,14,04,30,9.30
2006,09,14,04,31,9.30
2006,09,14,04,32,9.30
2006,09,14,04,33,9.20
2006,09,14,04,34,9.20
2006,09,14,04,35,9.20
2006,09,14,04,36,9.20
2006,09,14,04,37,9.20
2006,09,14,04,38,9.20
2006,09,14,04,39,9.10
2006,09,14,04,40,9.10
2006,09,14,04,41,9.10
2006,09,14,04,42,9.10
2006,09,14,04,43,9.00
2006,09,14,04,44,9.00
2006,09,14,04,45,9.00
2006,09,14,04,46,9.00
2006,09,14,04,47,9.00
2006,09,14,04,48,8.90
2006,09,14,04,49,8.90
2006,09,14,04,50,8.90
2006,09,14,04,51,8.90
2006,09,14,04,52,8.80
2006,09,14,04,53,8.80
2006,09,14,04,54,8.80
2006,09,14,04,55,8.70
2006,09,14,04,56,8.70
2006,09,14,04,57,8.70
2006,09,14,04,58,8.70
2006,09,14,04,59,8.70
2006,09,14,05,00,8.70
2006,09,14,05,01,8.70
2006,09,14,05,02,8.60
2006,09,14,05,03,8.60
2006,09,14,05,04,8.60
2006,09,14,05,05,8.60
2006,09,14,05,06,8.60
2006,09,14,05,07,8.60
2006,09,14,05,08,8.60
2006,09,14,05,09,8.50
2006,09,14,05,10,8.50
2006,09,14,05,11,8.50
2006,09,14,05,12,8.50
2006,09,14,05,13,8.50
2006,09,14,05,14,8.50
2006,09,14,05,15,8.50
2006,09,14,05,16,8.50
2006,09,14,05,17,8.40
2006,09,14,05,18,8.40
2006,09,14,05,19,8.40
2006,09,14,05,20,8.40
2006,09,14,05,21,8.40
2006,09,14,05,22,8.40
2006,09,14,05,23,8.40
2006,09,14,05,24,8.40
2006,09,14,05,25,8.40
2006,09,14,05,26,8.40
2006,09,14,05,27,8.30
2006,09,14,05,28,8.30
2006,09,14,05,29,8.30
2006,09,14,05,30,8.30
2006,09,14,05,31,8.30
2006,09,14,05,32,8.30
2006,09,14,05,33,8.20
2006,09,14,05,34,8.20
2006,09,14,05,35,8.20
2006,09,14,05,36,8.20
2006,09,14,05,37,8.20
2006,09,14,05,38,8.20
2006,09,14,05,39,8.20
2006,09,14,05,40,8.20
2006,09,14,05,41,8.20
2006,09,14,05,42,8.20
2006,09,14,05,43,8.20
2006,09,14,05,44,8.20
2006,09,14,05,45,8.20
2006,09,14,05,46,8.20
2006,09,14,05,47,8.20
2006,09,14,05,48,8.20
2006,09,14,05,49,8.20
2006,09,14,05,50,8.20
2006,09,14,05,51,8.20
2006,09,14,05,52,8.20
2006,09,14,05,53,8.10
2006,09,14,05,54,8.10
2006,09,14,05,55,8.10
2006,09,14,05,56,8.10
2006,09,14,05,57,8.10
2006,09,14,05,58,8.00
2006,09,14,05,59,8.00
2006,09,14,06,00,8.00
2006,09,14,06,01,7.90
2006,09,14,06,02,7.90
2006,09,14,06,03,7.90
2006,09,14,06,04,7.90
2006,09,14,06,05,7.90
2006,09,14,06,06,7.80
2006,09,14,06,07,7.80
2006,09,14,06,08,7.80
2006,09,14,06,09,7.80
2006,09,14,06,10,7.80
2006,09,14,06,11,7.80
2006,09,14,06,12,7.80
2006,09,14,06,13,7.80
2006,09,14,06,14,7.80
2006,09,14,06,15,7.80
2006,09,14,06,16,7.80
2006,09,14,06,17,7.80
2006,09,14,06,18,7.80
2006,09,14,06,19,7.80
2006,09,14,06,20,7.80
2006,09,14,06,21,7.80
2006,09,14,06,22,7.80
2006,09,14,06,23,7.70
2006,09,14,06,24,7.70
2006,09,14,06,25,7.70
2006,09,14,06,26,7.70
2006,09,14,06,27,7.70
2006,09,14,06,28,7.70
2006,09,14,06,29,7.70
2006,09,14,06,30,7.60
2006,09,14,06,31,7.60
2006,09,14,06,32,7.60
2006,09,14,06,33,7.60
2006,09,14,06,34,7.60
2006,09,14,06,35,7.50
2006,09,14,06,36,7.50
2006,09,14,06,37,7.50
2006,09,14,06,38,7.50
2006,09,14,06,39,7.50
2006,09,14,06,40,7.50
2006,09,14,06,41,7.50
2006,09,14,06,42,7.60
2006,09,14,06,43,7.60
2006,09,14,06,44,7.60
2006,09,14,06,45,7.60
2006,09,14,06,46,7.60
2006,09,14,06,47,7.60
2006,09,14,06,48,7.60
2006,09,14,06,49,7.50
2006,09,14,06,50,7.50
2006,09,14,06,51,7.50
2006,09,14,06,52,7.50
2006,09,14,06,53,7.50
2006,09,14,06,54,7.50
2006,09,14,06,55,7.50
2006,09,14,06,56,7.50
2006,09,14,06,57,7.60
2006,09,14,06,58,7.60
2006,09,14,06,59,7.60
2006,09,14,07,00,7.60
2006,09,14,07,01,7.60
2006,09,14,07,02,7.60
2006,09,14,07,03,7.60
2006,09,14,07,04,7.50
2006,09,14,07,05,7.50
2006,09,14,07,06,7.50
2006,09,14,07,07,7.50
2006,09,14,07,08,7.50
2006,09,14,07,09,7.50
2006,09,14,07,10,7.40
2006,09,14,07,11,7.40
2006,09,14,07,12,7.40
2006,09,14,07,13,7.40
2006,09,14,07,14,7.40
2006,09,14,07,15,7.40
2006,09,14,07,16,7.40
2006,09,14,07,17,7.40
2006,09,14,07,18,7.40
2006,09,14,07,19,7.40
2006,09,14,07,20,7.40
2006,09,14,07,21,7.40
2006,09,14,07,22,7.40
2006,09,14,07,23,7.40
2006,09,14,07,24,7.40
2006,09,14,07,25,7.30
2006,09,14,07,26,7.30
2006,09,14,07,27,7.30
2006,09,14,07,28,7.30
2006,09,14,07,29,7.30
2006,09,14,07,30,7.30
2006,09,14,07,31,7.30
2006,09,14,07,32,7.30
2006,09,14,07,33,7.30
2006,09,14,07,34,7.30
2006,09,14,07,35,7.30
2006,09,14,07,36,7.40
2006,09,14,07,37,7.40
2006,09,14,07,38,7.40
2006,09,14,07,39,7.40
2006,09,14,07,40,7.40
2006,09,14,07,41,7.40
2006,09,14,07,42,7.40
2006,09,14,07,43,7.40
2006,09,14,07,44,7.40
2006,09,14,07,45,7.40
2006,09,14,07,46,7.40
2006,09,14,07,47,7.40
2006,09,14,07,48,7.40
2006,09,14,07,49,7.40
2006,09,14,07,50,7.40
2006,09,14,07,51,7.40
2006,09,14,07,52,7.40
2006,09,14,07,53,7.40
2006,09,14,07,54,7.40
2006,09,14,07,55,7.40
2006,09,14,07,56,7.40
2006,09,14,07,57,7.40
2006,09,14,07,58,7.50
2006,09,14,07,59,7.50
2006,09,14,08,00,7.50
2006,09,14,08,01,7.50
2006,09,14,08,02,7.60
2006,09,14,08,03,7.60
2006,09,14,08,04,7.60
2006,09,14,08,05,7.60
2006,09,14,08,06,7.70
2006,09,14,08,07,7.70
2006,09,14,08,08,7.80
2006,09,14,08,09,7.80
2006,09,14,08,10,7.80
2006,09,14,08,11,7.80
2006,09,14,08,12,7.80
2006,09,14,08,13,7.90
2006,09,14,08,14,7.90
2006,09,14,08,15,8.00
2006,09,14,08,16,8.00
2006,09,14,08,17,8.10
2006,09,14,08,18,8.20
2006,09,14,08,19,8.20
2006,09,14,08,20,8.30
2006,09,14,08,21,8.40
2006,09,14,08,22,8.40
2006,09,14,08,23,8.50
2006,09,14,08,24,8.60
2006,09,14,08,25,8.70
2006,09,14,08,26,8.70
2006,09,14,08,27,8.80
2006,09,14,08,28,8.90
2006,09,14,08,29,8.90
2006,09,14,08,30,9.00
2006,09,14,08,31,9.10
2006,09,14,08,32,9.20
2006,09,14,08,33,9.30
2006,09,14,08,34,9.40
2006,09,14,08,35,9.50
2006,09,14,08,36,9.60
2006,09,14,08,37,9.70
2006,09,14,08,38,9.70
2006,09,14,08,39,9.80
2006,09,14,08,40,9.90
2006,09,14,08,41,10.00
2006,09,14,08,42,10.10
2006,09,14,08,43,10.30
2006,09,14,08,44,10.40
2006,09,14,08,45,10.60
2006,09,14,08,46,10.70
2006,09,14,08,47,10.80
2006,09,14,08,48,10.90
2006,09,14,08,49,11.00
2006,09,14,08,50,11.20
2006,09,14,08,51,11.30
2006,09,14,08,52,11.40
2006,09,14,08,53,11.50
2006,09,14,08,54,11.60
2006,09,14,08,55,11.70
2006,09,14,08,56,11.80
2006,09,14,08,57,11.90
2006,09,14,08,58,12.00
2006,09,14,08,59,12.10
2006,09,14,09,00,12.20
2006,09,14,09,01,12.40
2006,09,14,09,02,12.50
2006,09,14,09,03,12.60
2006,09,14,09,04,12.70
2006,09,14,09,05,12.80
2006,09,14,09,06,12.90
2006,09,14,09,07,13.00
2006,09,14,09,08,13.00
2006,09,14,09,09,13.10
2006,09,14,09,10,13.20
2006,09,14,09,11,13.20
2006,09,14,09,12,13.30
2006,09,14,09,13,13.30
2006,09,14,09,14,13.40
2006,09,14,09,15,13.50
2006,09,14,09,16,13.50
2006,09,14,09,17,13.50
2006,09,14,09,18,13.50
2006,09,14,09,19,13.50
2006,09,14,09,20,13.50
2006,09,14,09,21,13.50
2006,09,14,09,22,13.50
2006,09,14,09,23,13.50
2006,09,14,09,24,13.40
2006,09,14,09,25,13.40
2006,09,14,09,26,13.40
2006,09,14,09,27,13.50
2006,09,14,09,28,13.50
2006,09,14,09,29,13.50
2006,09,14,09,30,13.50
2006,09,14,09,31,13.50
2006,09,14,09,32,13.40
2006,09,14,09,33,13.40
2006,09,14,09,34,13.50
2006,09,14,09,35,13.50
2006,09,14,09,36,13.50
2006,09,14,09,37,13.50
2006,09,14,09,38,13.50
2006,09,14,09,39,13.60
2006,09,14,09,40,13.60
2006,09,14,09,41,13.60
2006,09,14,09,42,13.60
2006,09,14,09,43,13.60
2006,09,14,09,44,13.70
2006,09,14,09,45,13.70
2006,09,14,09,46,13.70
2006,09,14,09,47,13.70
2006,09,14,09,48,13.80
2006,09,14,09,49,13.80
2006,09,14,09,50,13.90
2006,09,14,09,51,13.90
2006,09,14,09,52,14.00
2006,09,14,09,53,14.00
2006,09,14,09,54,14.00
2006,09,14,09,55,14.00
2006,09,14,09,56,14.10
2006,09,14,09,57,14.10
2006,09,14,09,58,14.00
2006,09,14,09,59,14.00
2006,09,14,10,00,13.90
2006,09,14,10,01,13.80
2006,09,14,10,02,13.80
2006,09,14,10,03,13.80
2006,09,14,10,04,13.90
2006,09,14,10,05,13.90
2006,09,14,10,06,13.90
2006,09,14,10,07,13.90
2006,09,14,10,08,13.90
2006,09,14,10,09,14.00
2006,09,14,10,10,14.00
2006,09,14,10,11,14.10
2006,09,14,10,12,14.10
2006,09,14,10,13,14.20
2006,09,14,10,14,14.20
2006,09,14,10,15,14.20
2006,09,14,10,16,14.10
2006,09,14,10,17,14.10
2006,09,14,10,18,14.10
2006,09,14,10,19,14.00
2006,09,14,10,20,14.00
2006,09,14,10,21,14.10
2006,09,14,10,22,14.10
2006,09,14,10,23,14.20
2006,09,14,10,24,14.20
2006,09,14,10,25,14.20
2006,09,14,10,26,14.20
2006,09,14,10,27,14.30
2006,09,14,10,28,14.30
2006,09,14,10,29,14.30
2006,09,14,10,30,14.20
2006,09,14,10,31,14.20
2006,09,14,10,32,14.10
2006,09,14,10,33,14.10
2006,09,14,10,34,14.10
2006,09,14,10,35,14.20
2006,09,14,10,36,14.20
2006,09,14,10,37,14.20
2006,09,14,10,38,14.20
2006,09,14,10,39,14.10
2006,09,14,10,40,14.00
2006,09,14,10,41,13.90
2006,09,14,10,42,13.90
2006,09,14,10,43,13.80
2006,09,14,10,44,13.70
2006,09,14,10,45,13.50
2006,09,14,10,46,13.30
2006,09,14,10,47,13.20
2006,09,14,10,48,13.00
2006,09,14,10,49,13.00
2006,09,14,10,50,12.90
2006,09,14,10,51,12.80
2006,09,14,10,52,12.70
2006,09,14,10,53,12.60
2006,09,14,10,54,12.60
2006,09,14,10,55,12.60
2006,09,14,10,56,12.60
2006,09,14,10,57,12.60
2006,09,14,10,58,12.50
2006,09,14,10,59,12.50
2006,09,14,11,00,12.40
2006,09,14,11,01,12.40
2006,09,14,11,02,12.40
2006,09,14,11,03,12.40
2006,09,14,11,04,12.40
2006,09,14,11,05,12.40
2006,09,14,11,06,12.40
2006,09,14,11,07,12.40
2006,09,14,11,08,12.40
2006,09,14,11,09,12.40
2006,09,14,11,10,12.40
2006,09,14,11,11,12.40
2006,09,14,11,12,12.50
2006,09,14,11,13,12.50
2006,09,14,11,14,12.50
2006,09,14,11,15,12.50
2006,09,14,11,16,12.50
2006,09,14,11,17,12.50
2006,09,14,11,18,12.50
2006,09,14,11,19,12.50
2006,09,14,11,20,12.50
2006,09,14,11,21,12.50
2006,09,14,11,22,12.50
2006,09,14,11,23,12.40
2006,09,14,11,24,12.50
2006,09,14,11,25,12.50
2006,09,14,11,26,12.50
2006,09,14,11,27,12.60
2006,09,14,11,28,12.60
2006,09,14,11,29,12.60
2006,09,14,11,30,12.60
2006,09,14,11,31,12.60
2006,09,14,11,32,12.60
2006,09,14,11,33,12.60
2006,09,14,11,34,12.60
2006,09,14,11,35,12.60
2006,09,14,11,36,12.60
2006,09,14,11,37,12.60
2006,09,14,11,38,12.60
2006,09,14,11,39,12.60
2006,09,14,11,40,12.60
2006,09,14,11,41,12.60
2006,09,14,11,42,12.60
2006,09,14,11,43,12.70
2006,09,14,11,44,12.70
2006,09,14,11,45,12.70
2006,09,14,11,46,12.80
2006,09,14,11,47,12.80
2006,09,14,11,48,12.80
2006,09,14,11,49,12.80
2006,09,14,11,50,12.80
2006,09,14,11,51,12.80
2006,09,14,11,52,12.80
2006,09,14,11,53,12.80
2006,09,14,11,54,12.80
2006,09,14,11,55,12.80
2006,09,14,11,56,12.80
2006,09,14,11,57,12.80
2006,09,14,11,58,12.90
2006,09,14,11,59,13.00
2006,09,14,12,00,13.10
2006,09,14,12,01,13.10
2006,09,14,12,02,13.30
2006,09,14,12,03,13.30
2006,09,14,12,04,13.40
2006,09,14,12,05,13.40
2006,09,14,12,06,13.50
2006,09,14,12,07,13.50
2006,09,14,12,08,13.50
2006,09,14,12,09,13.50
2006,09,14,12,10,13.50
2006,09,14,12,11,13.40
2006,09,14,12,12,13.40
2006,09,14,12,13,13.50
2006,09,14,12,14,13.50
2006,09,14,12,15,13.50
2006,09,14,12,16,13.50
2006,09,14,12,17,13.50
2006,09,14,12,18,13.50
2006,09,14,12,19,13.60
2006,09,14,12,20,13.60
2006,09,14,12,21,13.60
2006,09,14,12,22,13.60
2006,09,14,12,23,13.60
2006,09,14,12,24,13.60
2006,09,14,12,25,13.50
2006,09,14,12,26,13.40
2006,09,14,12,27,13.40
2006,09,14,12,28,13.40
2006,09,14,12,29,13.40
2006,09,14,12,30,13.40
2006,09,14,12,31,13.30
2006,09,14,12,32,13.30
2006,09,14,12,33,13.50
2006,09,14,12,34,13.60
2006,09,14,12,35,13.60
2006,09,14,12,36,13.70
2006,09,14,12,37,13.70
2006,09,14,12,38,13.80
2006,09,14,12,39,13.80
2006,09,14,12,40,13.80
2006,09,14,12,41,13.80
2006,09,14,12,42,13.80
2006,09,14,12,43,13.70
2006,09,14,12,44,13.70
2006,09,14,12,45,13.60
2006,09,14,12,46,13.60
2006,09,14,12,47,13.70
2006,09,14,12,48,13.70
2006,09,14,12,49,13.70
2006,09,14,12,50,13.70
2006,09,14,12,51,13.80
2006,09,14,12,52,13.90
2006,09,14,12,53,14.00
2006,09,14,12,54,14.00
2006,09,14,12,55,13.90
2006,09,14,12,56,13.90
2006,09,14,12,57,13.80
2006,09,14,12,58,13.90
2006,09,14,12,59,13.80
2006,09,14,13,00,13.70
2006,09,14,13,01,13.70
2006,09,14,13,02,13.70
2006,09,14,13,03,13.90
2006,09,14,13,04,13.90
2006,09,14,13,05,13.90
2006,09,14,13,06,13.90
2006,09,14,13,07,13.90
2006,09,14,13,08,13.90
2006,09,14,13,09,13.80
2006,09,14,13,10,13.70
2006,09,14,13,11,13.70
2006,09,14,13,12,13.60
2006,09,14,13,13,13.60
2006,09,14,13,14,13.50
2006,09,14,13,15,13.40
2006,09,14,13,16,13.40
2006,09,14,13,17,13.50
2006,09,14,13,18,13.50
2006,09,14,13,19,13.60
2006,09,14,13,20,13.60
2006,09,14,13,21,13.80
2006,09,14,13,22,13.80
2006,09,14,13,23,13.80
2006,09,14,13,24,13.70
2006,09,14,13,25,13.70
2006,09,14,13,26,13.70
2006,09,14,13,27,13.70
2006,09,14,13,28,13.80
2006,09,14,13,29,13.80
2006,09,14,13,30,13.80
2006,09,14,13,31,13.80
2006,09,14,13,32,13.70
2006,09,14,13,33,13.70
2006,09,14,13,34,13.70
2006,09,14,13,35,13.70
2006,09,14,13,36,13.70
2006,09,14,13,37,13.70
2006,09,14,13,38,13.70
2006,09,14,13,39,13.70
2006,09,14,13,40,13.80
2006,09,14,13,41,13.80
2006,09,14,13,42,13.90
2006,09,14,13,43,13.90
2006,09,14,13,44,13.90
2006,09,14,13,45,14.00
2006,09,14,13,46,14.00
2006,09,14,13,47,14.00
2006,09,14,13,48,14.00
2006,09,14,13,49,14.00
2006,09,14,13,50,14.00
2006,09,14,13,51,14.00
2006,09,14,13,52,14.00
2006,09,14,13,53,13.90
2006,09,14,13,54,13.80
2006,09,14,13,55,13.70
2006,09,14,13,56,13.70
2006,09,14,13,57,13.70
2006,09,14,13,58,13.80
2006,09,14,13,59,13.90
2006,09,14,14,00,13.90
2006,09,14,14,01,14.00
2006,09,14,14,02,14.10
2006,09,14,14,03,14.20
2006,09,14,14,04,14.20
2006,09,14,14,05,14.30
2006,09,14,14,06,14.40
2006,09,14,14,07,14.50
2006,09,14,14,08,14.60
2006,09,14,14,09,14.60
2006,09,14,14,10,14.70
2006,09,14,14,11,14.70
2006,09,14,14,12,14.70
2006,09,14,14,13,14.70
2006,09,14,14,14,14.80
2006,09,14,14,15,14.80
2006,09,14,14,16,14.80
2006,09,14,14,17,14.70
2006,09,14,14,18,14.70
2006,09,14,14,19,14.60
2006,09,14,14,20,14.60
2006,09,14,14,21,14.50
2006,09,14,14,22,14.50
2006,09,14,14,23,14.40
2006,09,14,14,24,14.30
2006,09,14,14,25,14.40
2006,09,14,14,26,14.40
2006,09,14,14,27,14.50
2006,09,14,14,28,14.50
2006,09,14,14,29,14.60
2006,09,14,14,30,14.70
2006,09,14,14,31,14.70
2006,09,14,14,32,14.70
2006,09,14,14,33,14.60
2006,09,14,14,34,14.60
2006,09,14,14,35,14.60
2006,09,14,14,36,14.50
2006,09,14,14,37,14.50
2006,09,14,14,38,14.50
2006,09,14,14,39,14.50
2006,09,14,14,40,14.50
2006,09,14,14,41,14.60
2006,09,14,14,42,14.40
2006,09,14,14,43,14.40
2006,09,14,14,44,14.30
2006,09,14,14,45,14.40
2006,09,14,14,46,14.40
2006,09,14,14,47,14.20
2006,09,14,14,48,14.20
2006,09,14,14,49,14.20
2006,09,14,14,50,14.20
2006,09,14,14,51,14.20
2006,09,14,14,52,14.20
2006,09,14,14,53,14.10
2006,09,14,14,54,14.10
2006,09,14,14,55,14.20
2006,09,14,14,56,14.20
2006,09,14,14,57,14.20
2006,09,14,14,58,14.30
2006,09,14,14,59,14.40
2006,09,14,15,00,14.40
2006,09,14,15,01,14.40
2006,09,14,15,02,14.40
2006,09,14,15,03,14.20
2006,09,14,15,04,14.20
2006,09,14,15,05,14.20
2006,09,14,15,06,14.20
2006,09,14,15,07,14.30
2006,09,14,15,08,14.40
2006,09,14,15,09,14.40
2006,09,14,15,10,14.40
2006,09,14,15,11,14.40
2006,09,14,15,12,14.30
2006,09,14,15,13,14.10
2006,09,14,15,14,14.00
2006,09,14,15,15,13.80
2006,09,14,15,16,13.70
2006,09,14,15,17,13.70
2006,09,14,15,18,13.70
2006,09,14,15,19,13.60
2006,09,14,15,20,13.60
2006,09,14,15,21,13.70
2006,09,14,15,22,13.70
2006,09,14,15,23,13.70
2006,09,14,15,24,13.70
2006,09,14,15,25,13.70
2006,09,14,15,26,13.70
2006,09,14,15,27,13.70
2006,09,14,15,28,13.70
2006,09,14,15,29,13.70
2006,09,14,15,30,13.70
2006,09,14,15,31,13.70
2006,09,14,15,32,13.70
2006,09,14,15,33,13.80
2006,09,14,15,34,13.80
2006,09,14,15,35,13.80
2006,09,14,15,36,13.80
2006,09,14,15,37,13.80
2006,09,14,15,38,13.70
2006,09,14,15,39,13.70
2006,09,14,15,40,13.60
2006,09,14,15,41,13.50
2006,09,14,15,42,13.40
2006,09,14,15,43,13.30
2006,09,14,15,44,13.30
2006,09,14,15,45,13.30
2006,09,14,15,46,13.30
2006,09,14,15,47,13.40
2006,09,14,15,48,13.40
2006,09,14,15,49,13.40
2006,09,14,15,50,13.50
2006,09,14,15,51,13.50
2006,09,14,15,52,13.50
2006,09,14,15,53,13.40
2006,09,14,15,54,13.30
2006,09,14,15,55,13.30
2006,09,14,15,56,13.30
2006,09,14,15,57,13.20
2006,09,14,15,58,13.20
2006,09,14,15,59,13.20
2006,09,14,16,00,13.20
2006,09,14,16,01,13.20
2006,09,14,16,02,13.20
2006,09,14,16,03,13.20
2006,09,14,16,04,13.10
2006,09,14,16,05,13.10
2006,09,14,16,06,13.10
2006,09,14,16,07,13.00
2006,09,14,16,08,13.00
2006,09,14,16,09,13.00
2006,09,14,16,10,13.00
2006,09,14,16,11,12.90
2006,09,14,16,12,12.90
2006,09,14,16,13,12.90
2006,09,14,16,14,12.80
2006,09,14,16,15,12.80
2006,09,14,16,16,12.80
2006,09,14,16,17,12.80
2006,09,14,16,18,12.80
2006,09,14,16,19,12.90
2006,09,14,16,20,12.90
2006,09,14,16,21,12.90
2006,09,14,16,22,13.00
2006,09,14,16,23,13.00
2006,09,14,16,24,13.00
2006,09,14,16,25,13.00
2006,09,14,16,26,13.00
2006,09,14,16,27,13.00
2006,09,14,16,28,13.00
2006,09,14,16,29,13.00
2006,09,14,16,30,13.10
2006,09,14,16,31,13.10
2006,09,14,16,32,13.10
2006,09,14,16,33,13.10
2006,09,14,16,34,13.10
2006,09,14,16,35,13.10
2006,09,14,16,36,13.10
2006,09,14,16,37,13.10
2006,09,14,16,38,13.20
2006,09,14,16,39,13.20
2006,09,14,16,40,13.20
2006,09,14,16,41,13.20
2006,09,14,16,42,13.20
2006,09,14,16,43,13.20
2006,09,14,16,44,13.30
2006,09,14,16,45,13.20
2006,09,14,16,46,13.20
2006,09,14,16,47,13.20
2006,09,14,16,48,13.20
2006,09,14,16,49,13.20
2006,09,14,16,50,13.20
2006,09,14,16,51,13.20
2006,09,14,16,52,13.10
2006,09,14,16,53,13.10
2006,09,14,16,54,13.10
2006,09,14,16,55,13.00
2006,09,14,16,56,13.00
2006,09,14,16,57,13.00
2006,09,14,16,58,13.00
2006,09,14,16,59,13.10
2006,09,14,17,00,13.10
2006,09,14,17,01,13.10
2006,09,14,17,02,13.10
2006,09,14,17,03,13.10
2006,09,14,17,04,13.10
2006,09,14,17,05,13.10
2006,09,14,17,06,13.10
2006,09,14,17,07,13.10
2006,09,14,17,08,13.10
2006,09,14,17,09,13.10
2006,09,14,17,10,13.10
2006,09,14,17,11,13.10
2006,09,14,17,12,13.10
2006,09,14,17,13,13.10
2006,09,14,17,14,13.10
2006,09,14,17,15,13.10
2006,09,14,17,16,13.10
2006,09,14,17,17,13.10
2006,09,14,17,18,13.20
2006,09,14,17,19,13.20
2006,09,14,17,20,13.20
2006,09,14,17,21,13.20
2006,09,14,17,22,13.20
2006,09,14,17,23,13.30
2006,09,14,17,24,13.30
2006,09,14,17,25,13.30
2006,09,14,17,26,13.30
2006,09,14,17,27,13.30
2006,09,14,17,28,13.30
2006,09,14,17,29,13.30
2006,09,14,17,30,13.30
2006,09,14,17,31,13.40
2006,09,14,17,32,13.40
2006,09,14,17,33,13.40
2006,09,14,17,34,13.50
2006,09,14,17,35,13.50
2006,09,14,17,36,13.50
2006,09,14,17,37,13.50
2006,09,14,17,38,13.60
2006,09,14,17,39,13.60
2006,09,14,17,40,13.50
2006,09,14,17,41,13.50
2006,09,14,17,42,13.50
2006,09,14,17,43,13.40
2006,09,14,17,44,13.30
2006,09,14,17,45,13.20
2006,09,14,17,46,13.10
2006,09,14,17,47,13.00
2006,09,14,17,48,12.90
2006,09,14,17,49,12.80
2006,09,14,17,50,12.60
2006,09,14,17,51,12.60
2006,09,14,17,52,12.50
2006,09,14,17,53,12.40
2006,09,14,17,54,12.40
2006,09,14,17,55,12.30
2006,09,14,17,56,12.20
2006,09,14,17,57,12.20
2006,09,14,17,58,12.10
2006,09,14,17,59,12.10
2006,09,14,18,00,12.00
2006,09,14,18,01,12.00
2006,09,14,18,02,11.90
2006,09,14,18,03,11.80
2006,09,14,18,04,11.80
2006,09,14,18,05,11.70
2006,09,14,18,06,11.70
2006,09,14,18,07,11.60
2006,09,14,18,08,11.60
2006,09,14,18,09,11.60
2006,09,14,18,10,11.60
2006,09,14,18,11,11.60
2006,09,14,18,12,11.50
2006,09,14,18,13,11.40
2006,09,14,18,14,11.40
2006,09,14,18,15,11.40
2006,09,14,18,16,11.40
2006,09,14,18,17,11.40
2006,09,14,18,18,11.40
2006,09,14,18,19,11.30
2006,09,14,18,20,11.30
2006,09,14,18,21,11.30